When you browse on this site, cookies collect data to enhance your experience and personalize the content and advertising you see.
Visit our Privacy Policy to learn more. By continuing to use the site, you agree to this use of cookies and data.
  • In Hungary
  • List of Countries
  • For 7 days
  • Water Temperature
  • Weather Map
  • News
  • Weather Widgets
  • user-avatar
    Login

    Hourly Weather Topolinek

    Today, 12 December, Thursday

    Time Temperature Precipitation Wind Pressure Humidity
    00:00 -2°C° 0 mm 4 mps 746 mmHg 72%
    01:00 -3°C° 0 mm 4 mps 746 mmHg 72%
    02:00 -3°C° 0 mm 4 mps 746 mmHg 71%
    03:00 -2°C° 0 mm 3 mps 745 mmHg 70%
    04:00 -2°C° 0 mm 3 mps 744 mmHg 69%
    05:00 -1°C° 0 mm 3 mps 744 mmHg 71%
    06:00 -1°C° 0 mm 3 mps 744 mmHg 74%
    07:00 0°C° 0 mm 3 mps 744 mmHg 76%
    08:00 -1°C° 0.1 mm 4 mps 744 mmHg 81%
    09:00 -1°C° 0.1 mm 4 mps 744 mmHg 85%
    10:00 0°C° 0.1 mm 4 mps 744 mmHg 89%
    11:00 0°C° 0 mm 4 mps 744 mmHg 91%
    12:00 +2°C° 0 mm 3 mps 744 mmHg 92%
    13:00 +2°C° 0 mm 3 mps 744 mmHg 93%
    14:00 +2°C° 0 mm 3 mps 744 mmHg 93%
    15:00 +2°C° 0 mm 3 mps 744 mmHg 93%
    16:00 +2°C° 0 mm 3 mps 743 mmHg 93%
    17:00 +2°C° 0 mm 3 mps 743 mmHg 92%
    18:00 +2°C° 0 mm 3 mps 743 mmHg 92%
    19:00 0°C° 0 mm 4 mps 743 mmHg 92%
    20:00 0°C° 0 mm 4 mps 743 mmHg 91%
    21:00 -1°C° 0 mm 4 mps 742 mmHg 91%
    22:00 -1°C° 0 mm 4 mps 742 mmHg 91%
    23:00 -1°C° 0 mm 4 mps 741 mmHg 91%

    Tomorrow, 13 December, Friday

    Time Temperature Precipitation Wind Pressure Humidity
    00:00 -1°C° 0 mm 4 mps 741 mmHg 90%
    01:00 -1°C° 0 mm 4 mps 740 mmHg 90%
    02:00 -1°C° 0 mm 4 mps 739 mmHg 89%
    03:00 -2°C° 0 mm 4 mps 738 mmHg 88%
    04:00 -2°C° 0 mm 5 mps 737 mmHg 87%
    05:00 -2°C° 0 mm 5 mps 737 mmHg 87%
    06:00 -2°C° 0 mm 5 mps 736 mmHg 87%
    07:00 -2°C° 0 mm 5 mps 735 mmHg 87%
    08:00 -2°C° 0 mm 5 mps 735 mmHg 87%
    09:00 -2°C° 0 mm 6 mps 734 mmHg 86%
    10:00 -1°C° 0 mm 6 mps 734 mmHg 86%
    11:00 +1°C° 0 mm 6 mps 733 mmHg 82%
    12:00 +1°C° 0 mm 6 mps 733 mmHg 77%
    13:00 +2°C° 0 mm 6 mps 733 mmHg 73%
    14:00 +2°C° 0 mm 5 mps 732 mmHg 77%
    15:00 +1°C° 0 mm 5 mps 732 mmHg 81%
    16:00 +1°C° 0 mm 5 mps 732 mmHg 84%
    17:00 +1°C° 0 mm 5 mps 732 mmHg 86%
    18:00 0°C° 0 mm 4 mps 732 mmHg 87%
    19:00 0°C° 0 mm 4 mps 733 mmHg 88%
    20:00 0°C° 0 mm 4 mps 733 mmHg 88%
    21:00 0°C° 0 mm 4 mps 733 mmHg 88%
    22:00 -1°C° 0 mm 4 mps 733 mmHg 88%
    23:00 0°C° 0 mm 5 mps 733 mmHg 87%

    Day after tomorrow, 14 December, Saturday

    Time Temperature Precipitation Wind Pressure Humidity
    00:00 0°C° 0 mm 5 mps 733 mmHg 86%
    01:00 +1°C° 0 mm 6 mps 733 mmHg 86%
    02:00 +1°C° 0.4 mm 6 mps 733 mmHg 88%
    03:00 +2°C° 0.4 mm 6 mps 733 mmHg 90%
    04:00 +2°C° 0.4 mm 7 mps 733 mmHg 92%
    05:00 +2°C° 0.2 mm 7 mps 734 mmHg 88%
    06:00 +2°C° 0.2 mm 7 mps 734 mmHg 84%
    07:00 +3°C° 0.2 mm 7 mps 735 mmHg 80%
    08:00 +2°C° 0 mm 7 mps 735 mmHg 81%
    09:00 +2°C° 0 mm 7 mps 735 mmHg 82%
    10:00 +2°C° 0 mm 7 mps 735 mmHg 83%
    11:00 +3°C° 0 mm 7 mps 735 mmHg 80%
    12:00 +3°C° 0 mm 7 mps 735 mmHg 76%
    13:00 +3°C° 0 mm 7 mps 735 mmHg 72%
    14:00 +3°C° 0.6 mm 7 mps 735 mmHg 78%
    15:00 +3°C° 0.6 mm 7 mps 735 mmHg 84%
    16:00 +3°C° 0.6 mm 7 mps 735 mmHg 90%
    17:00 +2°C° 0.1 mm 8 mps 736 mmHg 85%
    18:00 +2°C° 0.1 mm 8 mps 737 mmHg 80%
    19:00 +2°C° 0.1 mm 9 mps 738 mmHg 75%
    20:00 +1°C° 0 mm 8 mps 739 mmHg 74%
    21:00 +2°C° 0 mm 7 mps 740 mmHg 73%
    22:00 +1°C° 0 mm 6 mps 741 mmHg 72%
    23:00 +2°C° 0 mm 6 mps 741 mmHg 74%

    15 December, Sunday

    Time Temperature Precipitation Wind Pressure Humidity
    00:00 +2°C° 0 mm 7 mps 741 mmHg 76%
    01:00 +2°C° 0 mm 7 mps 742 mmHg 79%
    02:00 +2°C° 0 mm 6 mps 742 mmHg 80%
    03:00 +1°C° 0 mm 5 mps 742 mmHg 82%
    04:00 +1°C° 0 mm 4 mps 743 mmHg 84%
    05:00 0°C° 0 mm 4 mps 743 mmHg 84%
    06:00 0°C° 0 mm 4 mps 743 mmHg 85%
    07:00 +1°C° 0 mm 3 mps 743 mmHg 85%
    08:00 +1°C° 0.3 mm 5 mps 742 mmHg 87%
    09:00 +2°C° 0.3 mm 6 mps 741 mmHg 88%
    10:00 +3°C° 0.3 mm 7 mps 741 mmHg 89%
    11:00 +4°C° 0.3 mm 8 mps 741 mmHg 83%
    12:00 +6°C° 0.3 mm 8 mps 741 mmHg 76%
    13:00 +7°C° 0.3 mm 8 mps 741 mmHg 70%
    14:00 +6°C° 0 mm 9 mps 742 mmHg 65%
    15:00 +5°C° 0 mm 10 mps 743 mmHg 61%
    16:00 +3°C° 0 mm 11 mps 744 mmHg 57%
    17:00 +2°C° 0 mm 10 mps 745 mmHg 60%
    18:00 +1°C° 0 mm 9 mps 746 mmHg 64%
    19:00 +1°C° 0 mm 8 mps 748 mmHg 67%
    20:00 0°C° 0 mm 7 mps 749 mmHg 68%
    21:00 +1°C° 0 mm 6 mps 750 mmHg 69%
    22:00 0°C° 0 mm 5 mps 750 mmHg 70%
    23:00 0°C° 0 mm 5 mps 751 mmHg 73%

    16 December, Monday

    Time Temperature Precipitation Wind Pressure Humidity
    00:00 0°C° 0 mm 5 mps 751 mmHg 76%
    01:00 0°C° 0 mm 5 mps 751 mmHg 79%
    02:00 0°C° 0 mm 5 mps 751 mmHg 80%
    03:00 0°C° 0 mm 5 mps 751 mmHg 81%
    04:00 0°C° 0 mm 5 mps 751 mmHg 82%
    05:00 +1°C° 0 mm 5 mps 751 mmHg 83%
    06:00 +1°C° 0 mm 5 mps 751 mmHg 85%
    07:00 +1°C° 0 mm 4 mps 751 mmHg 87%
    08:00 +1°C° 0 mm 4 mps 752 mmHg 87%
    09:00 +1°C° 0 mm 4 mps 752 mmHg 87%
    10:00 +3°C° 0 mm 4 mps 752 mmHg 87%
    11:00 +3°C° 0 mm 3 mps 752 mmHg 85%
    12:00 +4°C° 0 mm 3 mps 752 mmHg 84%
    13:00 +4°C° 0 mm 3 mps 752 mmHg 82%
    14:00 +4°C° 0 mm 3 mps 752 mmHg 85%
    15:00 +4°C° 0 mm 3 mps 752 mmHg 88%
    16:00 +5°C° 0 mm 2 mps 752 mmHg 91%
    17:00 +4°C° 0.1 mm 3 mps 752 mmHg 92%
    18:00 +4°C° 0.1 mm 3 mps 751 mmHg 92%
    19:00 +4°C° 0.1 mm 3 mps 751 mmHg 93%
    20:00 +4°C° 0.1 mm 3 mps 751 mmHg 94%
    21:00 +4°C° 0.1 mm 3 mps 751 mmHg 94%
    22:00 +4°C° 0.1 mm 3 mps 751 mmHg 95%
    23:00 +4°C° 0.2 mm 3 mps 751 mmHg 94%

    17 December, Tuesday

    Time Temperature Precipitation Wind Pressure Humidity
    00:00 +4°C° 0.2 mm 3 mps 750 mmHg 93%
    01:00 +5°C° 0.2 mm 3 mps 750 mmHg 92%
    02:00 +4°C° 0 mm 3 mps 749 mmHg 89%
    03:00 +4°C° 0 mm 4 mps 749 mmHg 87%
    04:00 +4°C° 0 mm 4 mps 749 mmHg 84%
    05:00 +4°C° 0 mm 4 mps 749 mmHg 85%
    06:00 +3°C° 0 mm 4 mps 748 mmHg 85%
    07:00 +3°C° 0 mm 4 mps 748 mmHg 86%
    08:00 +4°C° 0 mm 4 mps 748 mmHg 85%
    09:00 +4°C° 0 mm 4 mps 749 mmHg 84%
    10:00 +3°C° 0 mm 5 mps 749 mmHg 83%
    11:00 +5°C° 0 mm 4 mps 749 mmHg 80%
    12:00 +6°C° 0 mm 4 mps 748 mmHg 77%
    13:00 +6°C° 0 mm 4 mps 748 mmHg 74%
    14:00 +6°C° 0 mm 4 mps 748 mmHg 76%
    15:00 +6°C° 0 mm 4 mps 748 mmHg 77%
    16:00 +6°C° 0 mm 4 mps 748 mmHg 79%
    17:00 +6°C° 0 mm 4 mps 748 mmHg 79%
    18:00 +6°C° 0 mm 4 mps 748 mmHg 80%
    19:00 +6°C° 0 mm 4 mps 748 mmHg 80%
    20:00 +6°C° 0 mm 4 mps 748 mmHg 81%
    21:00 +6°C° 0 mm 4 mps 749 mmHg 82%
    22:00 +7°C° 0 mm 4 mps 749 mmHg 82%
    23:00 +7°C° 0.3 mm 5 mps 749 mmHg 85%
    Show more